Wind_Speed
25 25 24 24 24 25 24 23 23 23 23 23 23 22 22 22 21 21 20 19 19 18 18 18 18 17 17 17 17 17 17 17 17 17 18 18 18 18 19 18 18 17 17 17 16 16 15 14 14
26 26 25 25 26 26 25 24 24 24 25 25 25 24 24 24 23 22 21 21 21 20 19 19 19 19 19 19 19 19 19 19 19 19 19 20 20 20 20 20 20 19 18 18 18 17 17 16 16
26 26 26 27 27 26 25 25 26 26 27 26 26 27 27 27 26 24 23 22 23 22 22 21 21 21 21 21 21 21 21 21 21 20 21 21 21 22 22 22 21 21 20 20 19 19 19 18 17
26 26 28 28 27 27 26 26 27 28 28 28 28 29 29 29 28 27 26 25 25 25 24 23 23 23 23 23 24 24 24 24 23 23 23 23 23 23 23 24 23 23 22 21 21 21 21 20 20
27 27 29 29 28 28 28 28 29 29 29 29 29 30 30 31 31 30 30 29 28 28 27 26 26 26 26 26 26 26 26 26 26 25 25 25 24 24 24 25 25 25 24 24 23 22 22 22 22
28 29 29 30 30 29 29 30 31 31 30 30 30 30 31 32 32 32 31 31 30 29 29 29 28 28 28 28 28 28 28 28 28 27 27 27 26 26 26 26 26 26 26 26 25 24 24 24 23
29 30 30 31 31 30 30 31 32 32 32 31 31 31 31 32 33 33 33 33 32 32 31 31 31 31 31 31 31 31 31 31 30 30 29 29 29 28 27 27 27 28 27 27 27 26 25 26 25
29 30 31 31 32 31 32 32 33 33 33 33 34 34 33 34 34 34 35 35 35 34 34 34 34 34 34 34 33 33 33 33 33 32 32 31 30 30 29 28 28 29 29 29 29 28 27 27 27
29 31 32 32 33 32 32 34 33 34 35 35 35 35 35 35 35 36 36 37 36 36 37 36 36 37 37 37 37 36 36 35 35 35 34 33 33 32 32 31 31 31 31 31 31 31 30 30 29
29 31 32 32 32 33 33 33 33 34 35 37 36 36 36 36 36 36 37 37 38 38 38 39 39 39 39 39 39 39 38 37 37 37 37 36 36 35 34 34 34 33 33 34 34 34 34 33 32
29 30 31 32 32 33 34 33 34 35 35 36 36 36 37 38 37 36 36 37 37 38 39 39 40 40 40 41 41 40 40 40 40 39 38 38 38 37 37 37 36 36 36 36 36 36 36 36 35
29 30 32 32 32 33 34 34 35 35 36 35 36 37 37 38 38 38 36 36 37 38 39 40 41 41 42 42 42 42 42 41 41 41 40 40 40 39 39 39 39 38 38 38 38 38 39 39 38
29 30 31 32 33 34 33 35 35 35 35 36 36 37 37 37 37 37 37 37 37 38 38 40 42 42 42 42 42 42 42 43 43 43 42 42 42 41 41 41 41 41 41 41 41 41 41 41 40
29 29 30 31 32 32 33 33 35 34 34 35 35 35 37 37 36 36 37 37 38 38 39 39 41 41 42 43 43 42 42 43 44 44 44 44 44 44 44 43 43 43 43 43 43 43 43 44 43
29 29 30 31 31 31 32 33 34 35 34 34 35 35 35 37 37 37 37 38 39 40 40 40 41 42 42 43 43 43 43 44 44 45 46 46 45 45 46 46 46 46 46 45 45 45 45 45 45
29 29 30 30 30 30 32 32 33 34 35 35 35 36 35 36 37 38 38 38 40 41 41 41 42 42 42 42 43 43 44 44 44 46 46 46 46 46 47 48 48 48 48 47 47 47 46 46 47
28 29 29 30 31 31 32 32 33 34 35 35 35 35 36 36 37 38 39 39 40 41 42 41 41 41 41 42 43 44 45 45 45 45 47 48 48 48 49 49 50 50 49 49 49 48 47 47 47
26 27 28 29 30 31 31 32 32 34 34 35 35 35 35 36 37 38 39 39 40 41 42 41 42 42 41 41 42 43 44 45 46 46 48 49 50 50 50 50 50 51 50 50 50 49 48 48 48
25 25 26 27 28 30 30 30 30 31 32 33 35 36 36 36 37 38 39 39 40 40 41 41 42 42 42 42 42 42 43 44 46 47 48 50 51 51 50 50 50 50 50 50 50 50 49 49 49
24 25 25 26 27 28 29 28 28 29 31 32 33 34 36 37 38 38 39 39 39 40 41 41 42 42 43 42 42 41 43 44 46 48 48 49 49 50 50 50 50 50 50 50 51 51 51 51 50
22 24 25 25 25 27 28 28 27 28 29 31 33 33 35 36 36 37 38 38 39 39 40 41 41 41 42 42 41 42 43 44 46 47 49 49 48 48 48 49 50 50 50 51 51 51 51 51 51
21 23 23 24 25 26 28 29 26 28 29 30 31 33 33 34 35 36 36 37 38 38 39 39 39 40 41 42 42 42 43 44 45 46 47 48 47 47 48 48 48 49 49 50 50 51 51 51 51
21 22 24 24 25 26 27 29 27 28 29 29 30 31 32 33 34 35 36 36 37 37 37 37 39 40 41 41 41 42 43 43 44 43 44 45 45 45 45 46 47 47 48 48 49 50 51 50 50
21 21 23 24 25 26 26 28 28 28 28 28 29 30 30 32 33 34 34 35 35 36 36 37 38 39 40 41 41 41 42 42 41 42 44 44 44 43 44 44 45 45 46 47 48 48 49 49 50
22 22 23 24 24 24 25 26 26 26 27 27 28 30 30 31 33 33 33 33 33 32 34 34 35 37 38 40 40 41 41 40 40 41 42 43 43 41 41 41 41 42 43 45 46 48 48 50 50
23 23 24 25 26 25 25 25 24 25 25 27 28 29 29 30 31 31 30 30 30 32 33 33 34 35 36 37 38 39 38 39 39 39 39 40 41 40 40 40 40 41 42 44 45 46 48 49 50
22 23 24 25 26 26 25 25 25 25 26 26 27 28 28 29 29 29 29 29 30 30 31 32 33 33 34 34 35 36 36 37 38 38 38 39 39 39 39 40 40 40 41 42 44 45 46 49 49
21 22 22 23 25 26 25 24 24 24 25 26 26 27 28 28 28 28 28 28 29 30 31 31 31 31 32 32 32 33 36 37 37 37 37 37 38 38 38 38 40 40 41 42 44 45 46 48 48
20 21 22 23 24 25 25 23 24 25 25 25 26 27 27 27 27 27 27 27 29 30 30 30 30 29 29 30 31 32 34 35 35 35 36 35 35 36 37 38 39 40 41 42 43 43 44 44 45
21 21 21 22 23 24 25 23 24 23 23 24 25 26 26 27 27 27 27 27 28 28 28 28 28 27 28 29 29 29 31 32 33 33 33 33 34 35 36 37 38 40 41 41 42 42 42 42 42
Wind_Direction
241 242 243 243 245 246 247 245 245 244 244 244 244 246 247 249 249 250 251 253 255 255 254 254 255 255 255 256 258 258 260 261 261 260 261 262 262 262 261 259 258 259 258 257 255 254 255 256 254
242 242 243 243 245 246 245 246 245 245 244 244 245 246 247 250 250 251 250 250 252 254 255 254 254 254 254 255 256 258 259 261 261 261 261 261 262 262 261 259 257 258 259 257 255 253 253 255 255
242 243 245 245 246 247 247 246 247 246 247 247 247 248 249 251 251 251 249 250 252 254 256 256 255 253 253 255 256 258 259 261 261 261 261 261 261 261 259 257 256 257 258 258 256 254 253 253 255
244 245 246 247 248 248 249 249 248 248 248 249 249 250 252 252 252 252 251 252 253 255 256 257 257 256 254 255 257 259 260 261 262 262 261 261 260 260 258 256 256 255 256 257 256 254 253 254 255
246 247 248 248 250 251 251 251 252 252 252 252 252 252 253 253 253 253 253 253 253 255 255 255 256 257 257 256 257 258 260 260 262 262 262 262 261 260 258 256 256 255 255 255 255 255 254 255 255
246 247 249 250 251 251 252 253 254 254 254 252 253 254 253 253 253 254 253 253 255 256 256 255 256 257 258 258 259 259 259 260 261 261 262 262 261 260 259 257 256 255 255 254 255 256 256 255 256
248 249 251 253 253 253 253 255 255 254 253 253 253 253 253 253 254 254 254 255 256 256 256 256 256 257 258 259 260 260 260 259 260 260 261 262 260 259 258 257 256 255 254 254 254 255 255 255 255
249 251 252 253 254 255 255 255 255 254 253 253 254 254 254 254 255 255 254 254 255 256 255 256 257 258 259 259 260 261 261 260 259 259 259 260 260 258 257 258 257 256 254 254 254 254 255 255 255
252 252 254 255 256 257 257 256 255 254 253 254 255 255 255 255 255 255 255 254 254 255 256 256 257 258 260 260 260 261 260 259 259 258 259 259 259 257 257 258 258 258 256 255 254 254 255 256 257
255 257 257 258 258 259 257 256 255 254 254 256 255 255 255 255 255 256 256 256 255 255 256 257 257 258 260 261 261 260 259 258 258 258 258 258 257 257 257 258 258 259 257 256 255 256 256 257 258
258 259 260 260 260 260 257 255 255 255 255 257 256 255 256 256 256 257 258 257 257 256 256 257 258 259 260 261 261 260 258 258 258 259 258 258 257 257 257 258 259 259 259 257 256 257 257 258 258
261 262 262 262 262 260 256 255 256 257 257 257 257 256 256 257 257 256 256 257 257 257 258 257 257 258 260 260 259 259 258 258 258 258 258 257 257 257 257 258 259 260 259 258 256 256 257 258 259
261 263 264 263 263 261 259 258 257 258 258 258 258 257 257 259 258 257 256 257 258 259 260 260 258 258 259 259 259 259 259 259 258 257 257 257 257 257 258 257 258 259 259 259 258 257 258 258 258
264 266 266 264 261 261 261 260 257 257 257 258 259 258 257 258 258 258 258 258 259 260 261 262 261 259 258 258 259 258 259 259 258 257 256 256 257 258 258 257 258 259 259 259 258 257 257 258 258
263 266 265 263 261 260 261 260 259 257 257 260 259 259 258 258 259 260 261 260 260 261 261 263 263 262 260 258 259 259 259 258 258 257 256 256 257 259 259 258 259 259 259 258 258 258 257 257 257
265 265 264 263 260 259 260 260 260 259 258 259 260 261 259 259 260 261 262 262 261 262 263 264 264 263 261 260 260 259 258 259 258 257 256 256 258 259 258 259 258 258 258 258 257 257 257 258 257
266 265 263 263 262 262 262 262 261 260 259 260 261 262 261 260 261 263 263 263 263 263 264 264 264 263 262 262 262 261 259 258 258 258 257 257 259 259 259 259 258 257 256 256 256 256 257 258 258
268 267 264 264 263 264 264 263 260 261 260 259 261 262 262 261 263 264 263 264 266 266 265 266 265 265 264 263 262 261 260 260 259 259 257 258 259 260 259 257 256 256 254 255 255 255 256 257 258
265 266 266 266 264 265 265 262 260 261 262 261 262 262 262 262 264 265 265 266 267 267 265 266 267 267 264 262 261 261 262 261 261 260 259 260 260 261 259 257 256 254 253 252 253 254 255 256 257
266 267 268 267 266 266 266 263 262 262 264 263 263 263 262 263 265 268 269 268 268 268 267 266 267 267 264 261 262 263 263 264 262 262 261 261 261 260 259 258 257 256 255 253 252 253 254 255 257
266 269 271 269 268 268 269 265 265 265 266 266 265 265 264 265 267 270 271 269 268 270 269 268 268 268 264 262 262 263 265 265 263 262 262 262 262 260 259 258 257 257 256 255 255 255 256 255 257
266 270 272 272 271 271 272 271 269 270 268 268 268 267 267 268 269 270 272 270 270 271 271 269 268 267 264 261 261 263 264 266 264 264 263 262 261 261 259 257 257 256 256 255 256 256 257 258 259
268 271 273 274 274 273 274 275 272 273 271 270 268 269 270 270 270 272 273 272 271 272 272 270 270 267 265 262 263 264 264 266 265 264 262 261 261 260 259 259 258 256 256 256 256 257 257 258 259
270 272 274 276 276 276 276 277 275 275 273 270 268 270 270 271 271 273 274 273 273 273 272 271 273 269 264 263 264 265 265 266 264 264 263 260 259 257 257 258 258 258 258 257 257 256 257 258 258
272 274 277 277 277 279 280 278 279 277 274 271 271 271 272 272 273 273 273 274 273 275 275 275 274 270 266 265 265 266 266 265 265 264 263 259 257 256 255 256 257 258 259 259 258 257 257 258 257
274 275 278 280 280 280 281 280 279 278 275 275 275 275 274 276 276 275 274 275 274 277 278 277 274 272 269 267 267 267 265 265 265 263 262 258 255 255 254 256 257 258 259 259 258 258 258 257 258
276 276 279 282 283 283 282 281 279 278 277 278 278 277 276 277 279 277 276 276 278 279 280 280 276 273 271 270 270 267 265 265 264 262 260 257 255 255 253 256 257 258 259 259 260 260 260 260 259
276 279 281 283 286 286 284 284 283 279 278 278 278 277 276 276 278 277 277 277 279 281 283 283 280 274 272 271 271 269 267 265 263 260 259 258 256 254 254 257 258 258 260 261 263 263 262 261 260
276 279 281 283 284 287 289 287 286 284 281 279 278 276 275 276 277 276 278 279 280 281 282 284 282 275 273 273 273 270 267 265 261 260 259 259 257 256 256 258 260 260 262 262 263 263 262 261 260
274 276 279 282 285 287 289 289 288 287 284 281 278 277 277 277 277 277 280 282 283 282 282 284 283 276 272 273 274 273 269 264 260 260 261 261 260 259 259 260 261 263 263 265 265 263 263 262 261
Height
5814 5816 5818 5820 5821 5822 5823 5826 5827 5829 5830 5831 5832 5833 5834 5836 5838 5841 5841 5841 5841 5842 5843 5844 5844 5845 5845 5846 5846 5847 5848 5848 5849 5849 5850 5850 5851 5851 5852 5852 5852 5853 5853 5853 5853 5854 5854 5854 5854
5809 5811 5813 5814 5815 5816 5819 5821 5822 5823 5824 5825 5827 5828 5829 5830 5832 5834 5835 5836 5837 5838 5839 5839 5840 5841 5841 5842 5843 5843 5844 5845 5845 5846 5846 5847 5847 5848 5848 5849 5849 5849 5850 5850 5850 5851 5851 5851 5852
5803 5805 5808 5808 5809 5811 5814 5816 5817 5818 5819 5820 5822 5823 5824 5825 5827 5829 5830 5832 5833 5833 5834 5835 5836 5836 5837 5838 5838 5839 5840 5841 5841 5842 5842 5843 5843 5844 5844 5845 5845 5846 5846 5846 5847 5847 5848 5848 5848
5798 5800 5801 5803 5804 5806 5808 5810 5811 5812 5813 5815 5816 5817 5818 5820 5821 5823 5825 5826 5827 5828 5829 5830 5831 5832 5832 5833 5834 5835 5835 5836 5837 5837 5838 5838 5839 5839 5840 5840 5841 5842 5842 5842 5843 5843 5844 5845 5845
5792 5793 5795 5796 5798 5801 5802 5803 5804 5806 5807 5809 5810 5811 5812 5813 5814 5817 5819 5820 5822 5823 5824 5825 5826 5826 5827 5828 5829 5829 5830 5831 5831 5832 5833 5833 5834 5834 5835 5835 5836 5837 5837 5838 5838 5839 5839 5840 5841
5786 5787 5788 5790 5792 5794 5796 5797 5798 5799 5800 5802 5803 5804 5805 5807 5808 5810 5812 5813 5815 5816 5817 5818 5819 5820 5821 5822 5823 5823 5824 5825 5826 5826 5827 5828 5828 5829 5830 5830 5831 5832 5832 5833 5833 5834 5834 5835 5836
5780 5781 5782 5784 5785 5787 5789 5790 5790 5792 5793 5795 5796 5797 5798 5800 5801 5803 5804 5806 5808 5809 5810 5812 5813 5814 5814 5815 5816 5817 5817 5818 5819 5820 5821 5821 5822 5823 5824 5824 5825 5826 5827 5827 5828 5828 5829 5830 5830
5772 5775 5775 5776 5778 5780 5782 5782 5783 5784 5786 5787 5789 5790 5792 5794 5794 5795 5796 5798 5800 5801 5802 5804 5805 5806 5807 5808 5809 5809 5810 5811 5812 5813 5814 5814 5815 5816 5817 5818 5819 5820 5821 5821 5822 5823 5823 5823 5824
5766 5768 5768 5770 5771 5773 5774 5774 5775 5776 5778 5779 5781 5783 5784 5785 5786 5787 5788 5789 5791 5792 5794 5795 5797 5798 5798 5799 5800 5801 5802 5803 5804 5805 5806 5807 5808 5809 5810 5811 5812 5813 5814 5815 5816 5816 5816 5817 5818
5759 5760 5762 5763 5764 5765 5765 5766 5767 5769 5770 5771 5772 5774 5775 5776 5777 5778 5779 5780 5782 5783 5784 5786 5788 5789 5790 5790 5791 5792 5793 5794 5795 5796 5797 5798 5799 5801 5803 5804 5805 5806 5807 5808 5808 5809 5809 5810 5811
5752 5753 5755 5755 5756 5757 5757 5758 5759 5760 5762 5763 5764 5765 5766 5767 5768 5769 5770 5771 5772 5774 5775 5776 5778 5779 5780 5781 5782 5783 5784 5785 5786 5787 5788 5789 5790 5792 5794 5795 5797 5798 5799 5800 5800 5801 5802 5803 5803
5745 5746 5747 5747 5747 5748 5749 5750 5751 5752 5754 5754 5755 5756 5757 5758 5759 5760 5761 5762 5763 5764 5765 5766 5768 5769 5770 5771 5772 5773 5774 5775 5776 5777 5778 5779 5781 5783 5785 5786 5788 5789 5790 5791 5792 5793 5794 5794 5795
5738 5739 5739 5739 5739 5739 5740 5742 5742 5744 5745 5746 5746 5747 5748 5749 5750 5751 5752 5753 5754 5755 5755 5756 5757 5758 5759 5760 5761 5762 5763 5764 5765 5766 5767 5769 5771 5773 5775 5776 5778 5779 5780 5781 5782 5783 5784 5785 5786
5731 5731 5731 5731 5730 5731 5732 5733 5734 5736 5736 5737 5737 5738 5739 5739 5740 5741 5742 5743 5744 5745 5745 5746 5747 5747 5748 5749 5750 5751 5752 5753 5754 5755 5756 5758 5760 5762 5763 5765 5767 5768 5770 5771 5771 5772 5773 5774 5776
5723 5723 5723 5722 5722 5722 5723 5725 5726 5727 5728 5728 5729 5729 5730 5730 5731 5732 5733 5733 5734 5735 5735 5736 5736 5737 5738 5738 5739 5740 5741 5742 5743 5744 5745 5747 5749 5751 5753 5754 5755 5757 5758 5759 5760 5761 5762 5763 5765
5715 5714 5714 5715 5714 5715 5717 5717 5718 5718 5719 5720 5720 5720 5721 5721 5722 5723 5723 5723 5724 5724 5725 5725 5726 5726 5727 5727 5728 5729 5729 5730 5731 5732 5733 5735 5737 5738 5740 5742 5743 5744 5746 5747 5748 5750 5751 5752 5753
5706 5706 5706 5707 5706 5707 5707 5709 5710 5710 5710 5711 5711 5711 5712 5712 5713 5713 5713 5713 5713 5714 5714 5714 5715 5715 5715 5716 5716 5717 5717 5718 5719 5720 5721 5723 5724 5725 5727 5729 5730 5731 5733 5734 5735 5737 5739 5740 5741
5699 5698 5698 5699 5699 5699 5699 5701 5701 5701 5701 5702 5702 5702 5703 5704 5704 5703 5703 5703 5703 5703 5703 5704 5703 5703 5703 5703 5703 5704 5705 5706 5706 5708 5709 5710 5711 5712 5713 5715 5716 5717 5719 5721 5723 5725 5727 5728 5729
5691 5690 5690 5691 5690 5690 5691 5692 5693 5692 5692 5693 5693 5694 5694 5694 5694 5693 5693 5692 5692 5692 5692 5692 5692 5692 5691 5691 5692 5693 5693 5694 5695 5695 5696 5697 5697 5698 5699 5701 5703 5704 5706 5708 5710 5713 5715 5716 5718
5683 5683 5683 5683 5682 5682 5683 5684 5684 5684 5684 5684 5684 5684 5684 5684 5684 5683 5683 5682 5681 5681 5681 5681 5681 5680 5679 5680 5681 5682 5682 5682 5682 5682 5683 5683 5684 5685 5686 5688 5689 5691 5693 5695 5698 5700 5702 5705 5706
5677 5677 5676 5676 5675 5674 5674 5676 5676 5676 5676 5676 5675 5675 5675 5675 5674 5674 5673 5671 5671 5670 5670 5670 5670 5669 5668 5669 5670 5671 5671 5670 5670 5670 5671 5671 5671 5672 5673 5675 5677 5679 5681 5683 5686 5688 5690 5692 5694
5671 5670 5669 5668 5668 5667 5667 5667 5669 5668 5667 5667 5666 5666 5665 5665 5664 5664 5662 5661 5661 5660 5659 5659 5658 5657 5657 5657 5658 5659 5659 5659 5659 5658 5658 5658 5658 5660 5661 5663 5664 5666 5669 5671 5673 5676 5678 5680 5682
5664 5663 5662 5661 5660 5661 5660 5659 5662 5660 5660 5659 5658 5657 5656 5655 5654 5653 5652 5651 5650 5650 5649 5649 5647 5646 5646 5646 5646 5647 5647 5647 5646 5646 5646 5646 5646 5648 5649 5651 5653 5655 5657 5659 5661 5663 5665 5667 5669
5658 5657 5656 5654 5654 5654 5654 5652 5653 5652 5651 5650 5649 5648 5647 5646 5645 5644 5642 5641 5640 5640 5639 5638 5637 5635 5634 5634 5634 5634 5635 5634 5634 5634 5634 5634 5635 5637 5639 5641 5642 5644 5645 5647 5648 5650 5652 5654 5656
5652 5651 5650 5648 5647 5648 5646 5644 5646 5644 5642 5642 5641 5640 5638 5637 5636 5634 5633 5631 5631 5630 5630 5628 5626 5624 5623 5623 5623 5622 5622 5623 5623 5622 5622 5623 5625 5627 5629 5630 5632 5633 5634 5635 5637 5638 5640 5641 5643
5645 5644 5644 5642 5641 5641 5639 5637 5639 5636 5634 5633 5632 5631 5630 5628 5627 5626 5624 5623 5622 5621 5620 5618 5616 5614 5613 5612 5612 5611 5611 5611 5611 5611 5611 5612 5614 5616 5618 5619 5621 5623 5624 5625 5626 5627 5629 5630 5631
5638 5637 5637 5635 5633 5633 5632 5631 5631 5629 5627 5625 5624 5623 5621 5620 5619 5617 5616 5615 5613 5612 5610 5608 5606 5604 5603 5602 5601 5601 5600 5600 5600 5601 5601 5602 5603 5606 5608 5609 5611 5613 5614 5614 5615 5616 5617 5618 5619
5632 5631 5630 5628 5626 5625 5625 5624 5624 5622 5620 5618 5616 5615 5613 5612 5611 5609 5608 5606 5605 5603 5601 5599 5596 5594 5593 5592 5592 5591 5590 5589 5590 5590 5591 5592 5594 5596 5598 5599 5601 5602 5603 5604 5604 5605 5605 5606 5607
5626 5625 5623 5622 5621 5619 5617 5620 5616 5614 5612 5611 5609 5606 5605 5604 5602 5601 5599 5598 5596 5594 5592 5590 5587 5585 5585 5584 5583 5582 5580 5580 5580 5581 5582 5583 5585 5586 5588 5589 5591 5592 5593 5593 5593 5594 5594 5594 5595
5620 5619 5618 5617 5615 5612 5610 5613 5608 5606 5604 5602 5601 5599 5597 5596 5594 5593 5591 5590 5587 5585 5584 5581 5579 5577 5576 5575 5574 5573 5571 5571 5572 5573 5574 5574 5575 5576 5578 5579 5580 5581 5581 5581 5581 5582 5582 5582 5583